TimeEST,TemperatureF,Dew PointF,Humidity,Sea Level PressureIn,VisibilityMPH,Wind Direction,Wind SpeedMPH,Gust SpeedMPH,PrecipitationIn,Events,Conditions,WindDirDegrees,DateUTC
12:53 AM,52.0,44.1,74,30.18,10.0,WNW,3.5,-,N/A,,Clear,300,2013-03-05 05:53:00
2:53 AM,52.0,46.0,80,30.15,10.0,NW,3.5,-,N/A,,Clear,320,2013-03-05 07:53:00
4:53 AM,52.0,46.0,80,30.15,-9999.0,Calm,Calm,-,N/A,,Clear,0,2013-03-05 09:53:00
5:53 AM,51.1,46.0,83,30.17,-9999.0,Calm,Calm,-,N/A,,Clear,0,2013-03-05 10:53:00
6:53 AM,50.0,46.9,89,30.17,10.0,Calm,Calm,-,N/A,,Clear,0,2013-03-05 11:53:00
8:53 AM,66.0,53.1,63,30.20,10.0,Calm,Calm,-,N/A,,Clear,0,2013-03-05 13:53:00
9:53 AM,70.0,54.0,57,30.19,10.0,South,8.1,-,N/A,,Scattered Clouds,180,2013-03-05 14:53:00
10:53 AM,71.1,53.1,53,30.18,10.0,SE,9.2,-,N/A,,Clear,140,2013-03-05 15:53:00
11:53 AM,72.0,53.1,51,30.17,10.0,South,11.5,-,N/A,,Partly Cloudy,170,2013-03-05 16:53:00
12:53 PM,71.1,53.1,53,30.16,10.0,East,6.9,-,N/A,,Partly Cloudy,100,2013-03-05 17:53:00
1:53 PM,73.0,54.0,51,30.13,10.0,SE,12.7,-,N/A,,Clear,140,2013-03-05 18:53:00
2:53 PM,73.0,54.0,51,30.12,10.0,SE,13.8,-,N/A,,Clear,140,2013-03-05 19:53:00
3:53 PM,72.0,54.0,53,30.11,10.0,SE,11.5,-,N/A,,Clear,140,2013-03-05 20:53:00
4:53 PM,71.1,54.0,55,30.11,10.0,SE,12.7,-,N/A,,Clear,140,2013-03-05 21:53:00
5:53 PM,69.1,53.1,57,30.12,10.0,SSE,10.4,-,N/A,,Clear,150,2013-03-05 22:53:00
6:53 PM,68.0,54.0,61,30.11,10.0,South,8.1,-,N/A,,Clear,170,2013-03-05 23:53:00
7:53 PM,66.9,54.0,63,30.12,10.0,South,4.6,-,N/A,,Clear,190,2013-03-06 00:53:00
8:53 PM,66.0,54.0,65,30.13,10.0,SSW,4.6,-,N/A,,Clear,210,2013-03-06 01:53:00
9:53 PM,64.9,55.0,70,30.13,10.0,SSW,5.8,-,N/A,,Clear,210,2013-03-06 02:53:00
10:53 PM,64.0,55.0,73,30.12,10.0,SSW,5.8,-,N/A,,Clear,200,2013-03-06 03:53:00
11:53 PM,63.0,55.0,75,30.11,10.0,SW,5.8,-,N/A,,Clear,230,2013-03-06 04:53:00